MST,Max TemperatureF,Mean TemperatureF,Min TemperatureF,Max Dew PointF,MeanDew PointF,Min DewpointF,Max Humidity, Mean Humidity, Min Humidity, Max Sea Level PressureIn, Mean Sea Level PressureIn, Min Sea Level PressureIn, Max VisibilityMiles, Mean VisibilityMiles, Min VisibilityMiles, Max Wind SpeedMPH, Mean Wind SpeedMPH, Max Gust SpeedMPH,PrecipitationIn, CloudCover, Events, WindDirDegrees
2011-12-1,33,27,19,30,22,16,100,85,74,30.52,30.39,30.12,10,5,1,21,14,28,0.00,8,,19
2011-12-2,30,20,10,25,14,7,100,91,75,30.27,29.94,29.76,10,5,0,15,3,,0.00,5,,10
2011-12-3,26,20,15,25,17,9,93,80,59,30.13,30.06,30.00,10,7,1,20,12,24,0.00,7,,4
2011-12-4,30,21,12,18,13,9,93,78,51,30.20,30.07,30.00,10,10,10,17,4,22,0.00,5,,84
2011-12-5,12,6,1,3,0,-6,92,76,62,30.38,30.33,30.25,10,10,8,13,7,,0.00,3,,143
2011-12-6,21,8,-4,14,4,-8,100,82,58,30.18,30.05,29.97,10,7,0,5,1,,0.00,3,,95
2011-12-7,39,26,12,23,16,9,100,69,49,30.17,30.10,30.06,10,10,10,8,4,,0.00,0,,105
2011-12-8,33,25,17,25,19,16,93,77,60,30.12,30.07,30.04,10,10,5,10,6,,0.00,3,,89
2011-12-9,28,22,15,25,20,12,100,92,80,30.29,30.22,30.12,7,2,0,8,4,,0.00,5,,83
2011-12-10,37,24,12,23,17,7,93,76,52,30.33,30.26,30.14,10,9,5,7,2,,0.00,0,,137
2011-12-11,41,28,15,25,18,7,93,68,39,30.04,29.92,29.85,10,10,6,9,2,,0.00,0,,107
2011-12-12,35,28,21,23,17,12,80,68,56,30.08,30.02,29.94,10,10,10,8,4,,0.00,0,,25
2011-12-13,26,20,15,25,18,12,100,92,79,30.01,29.94,29.87,10,5,0,9,4,,0.00,3,,11
2011-12-14,39,30,21,28,21,16,100,71,41,30.03,29.84,29.75,10,9,1,9,4,,0.00,2,,80
2011-12-15,37,28,19,23,20,16,86,70,52,30.21,30.15,30.10,10,10,10,9,5,,0.00,0,,15
2011-12-16,35,25,15,23,18,10,93,75,56,30.35,30.28,30.18,10,10,5,17,4,,0.00,0,,167
2011-12-17,39,29,19,25,18,12,93,69,49,30.39,30.32,30.25,10,10,10,8,2,,0.00,0,,48
2011-12-18,46,32,19,27,19,10,93,63,37,30.17,30.00,29.88,10,10,10,8,2,,0.00,0,,106
2011-12-19,37,32,26,25,21,18,86,69,48,30.20,30.12,29.94,10,10,8,18,7,18,0.00,6,,16
2011-12-20,37,24,12,25,18,9,100,79,60,30.14,29.91,29.76,10,10,6,8,4,,0.00,0,,148
2011-12-21,33,25,17,28,21,10,93,79,60,30.04,29.81,29.74,10,9,1,18,4,23,0.00,4,,350
2011-12-22,26,17,5,27,14,1,100,81,58,30.36,30.27,30.08,10,7,0,18,9,18,0.00,6,,58
2011-12-23,26,13,0,18,11,-4,100,80,59,30.32,30.28,30.26,10,9,0,7,2,,0.00,0,,150
2011-12-24,33,22,10,18,13,-4,92,70,51,30.43,30.37,30.32,10,10,10,7,3,,0.00,0,,165
2011-12-25,33,24,14,18,13,5,86,68,47,30.48,30.38,30.13,10,10,10,7,2,,0.00,0,,140
2011-12-26,37,24,12,25,17,9,100,70,44,30.14,30.00,29.91,10,10,10,12,4,17,0.00,0,,194
2011-12-27,24,,24,14,14,14,64,64,64,30.16,30.16,30.16,10,10,10,8,8,,0.00,0,,0
2011-12-28,,,,,,,,,,,,,,,,,,,,,,
2011-12-29,,,,,,,,,,,,,,,,,,,,,,
2011-12-30,50,44,37,30,27,19,65,54,32,29.85,29.77,29.68,10,10,10,12,6,,0.00,0,,63
2011-12-31,51,36,21,28,17,9,75,47,26,30.32,29.92,29.54,10,10,10,43,18,53,0.00,1,,280